User: anonymous   Login
Location: Brno
(49.2000°N, 16.6330°E)
Time: 14:26:54
(UTC+01:00)
Language:

Meteor 1-4 Rocket - Orbit

View from above orbital plane
View from above orbital plane
View from above satellite
View from above satellite

Ground track
Ground track

The orbit data is extracted from the following two-line orbital elements,

1 04394U 70037B   17052.23883949  .00001456  00000-0  51237-4 0  9996
2 04394  81.2445 150.9446 0041787 158.4558 201.8448 15.27754772547064
Epoch (UTC): 21 February 2017 05:43:55
Eccentricity: 0.0041787
inclination: 81.2445°
perigee height: 454 km
apogee height: 511 km
right ascension of ascending node: 150.9446°
argument of perigee: 158.4558°
revolutions per day: 15.27754772
mean anomaly at epoch: 201.8448°
orbit number at epoch: 54706

The dashed part of the orbit path shows where the satellite is in the earth's shadow,  

DLR